STARLINK-4452, 53658

Orbit data source: Space-Track

STARLINK-4452, 53658 is a payload satellite owned by SpaceX/Seattle (US) in SSO that was launched on Wed, 31 Aug 2022 UTC via an FALCON 9 launch vehicle from the Air Force Western Test Range (AFWTR). Payload-class satellites include a variety of spacecraft equipped with specific instruments for various scientific and technological missions. These include communications satellites like Starlink; space stations such as the ISS; scientific satellites like the Hubble; Earth observation satellites from companies like Planet Labs, Umbra, and HawkEye 360; GPS; miniature CubeSats for education and research; and military/defense satellites.

Loading next visibility...
Identifier
53658, 2022-105L
Orbit
SSO
Country
Flag of USUS
Related business
Manufacturer
SpaceX/Seattle
Mission
Operational Commercial Communications
Bus & Motor
STARLINK, Unknown motor
Mass
300 kg wet, ~290 kg dry
Launch date (UTC)
2022-08-31 (4 years ago)
Launch vehicle
FALCON 9
Launch site
Air Force Western Test Range (AFWTR)
Object type
Payload
Rocket body
Debris
Shape & HBR
Box + 1 Pan, 10.1 m
Radar Cross Section
13.562 m², Large (>1 m²)

Expand to show TLE details & history
Last TLE update: 2 days ago

TLE from 2 days ago
0 STARLINK-4452
1 53658U 22105L   26171.30884413  .00001509  00000-0  10853-3 0  9990
2 53658  97.3377  51.3186 0002418  78.1284 282.0215 15.05643726208744
Epoch: 2026-06-20T07:24Z
TLE epoch observation values (Epoch: 2026-06-20T07:24:44.132Z)
Latitude
-0°
Longitude
31.60939°
Altitude
552.255 km
Speed
7.586 km/s
True Right ascension
03h 25m 16s
True Declination
0° 00' 00"
Sunlit
Object was in daylight at epoch
Visualization orbit readout
Latitude
Unknown
Longitude
Unknown
Altitude
Unknown
Speed
Unknown
Apparent Right ascension
Unknown
Apparent Declination
Unknown
Sunlit
N/A
Visualization observer readout
Local Sidereal Time
21:27:42
Azimuth
Unknown
Elevation
Unknown
Doppler factor
Unknown
Orbital elements
Apogee altitude
548.187 km
Perigee altitude
544.838 km
Semi-major axis
6,924.65 km
Eccentricity
0.00024
Inclination
97.3377°
RAAN
51.3186°
Arg. of periapsis
78.1284°
True anomaly
281.9944°
Mean anomaly
282.0215°
Eccentric anomaly
282.00795°
Mean motion
3.76657 °/min
Orbital period
95.58 mins
BSTAR
0.00010853
Loading maneuver chart data...
Computing Atmospheric mass density...
Loading historical data...
Loading historical data...
Loading historical data...
Loading historical data...
Loading historical data...
Loading historical data...
Loading historical data...

Documentation

Showing up to 5 results
|